This is the latest recevied weather packets stored in our database for station/object I4GOS-3. If no packets are shown the sender has not sent any weather packets the latest 10 day(s).
| Time | Temp. | Humidity | Pressure | Rain* | Wind** | Luminosity | Snow |
|---|---|---|---|---|---|---|---|
| 1777207879 | 21.11° C | 61% | 1017.4 hPa | 0 mm | - | - | - |
| 1777207578 | 21.11° C | 60% | 1017.5 hPa | 0 mm | - | - | - |
| 1777207278 | 21.67° C | 60% | 1017.5 hPa | 0 mm | - | - | - |
| 1777206975 | 21.11° C | 61% | 1017.5 hPa | 0 mm | - | - | - |
| 1777206674 | 21.11° C | 60% | 1017.5 hPa | 0 mm | - | - | - |
| 1777206374 | 21.11° C | 59% | 1017.6 hPa | 0 mm | - | - | - |
| 1777206067 | 21.67° C | 59% | 1017.6 hPa | 0 mm | - | - | - |
| 1777205767 | 21.67° C | 58% | 1017.6 hPa | 0 mm | - | - | - |
| 1777205164 | 21.67° C | 58% | 1017.6 hPa | 0 mm | - | - | - |
| 1777204864 | 21.67° C | 59% | 1017.6 hPa | 0 mm | - | - | - |
| 1777204564 | 21.67° C | 58% | 1017.6 hPa | 0 mm | - | - | - |
| 1777204263 | 21.11° C | 58% | 1017.6 hPa | 0 mm | - | - | - |
| 1777203963 | 21.11° C | 59% | 1017.6 hPa | 0 mm | - | - | - |
| 1777203662 | 21.11° C | 58% | 1017.6 hPa | 0 mm | - | - | - |
| 1777203362 | 21.11° C | 59% | 1017.6 hPa | 0 mm | - | - | - |
| 1777203062 | 21.11° C | 58% | 1017.7 hPa | 0 mm | - | - | - |
| 1777202762 | 21.11° C | 60% | 1017.7 hPa | 0 mm | - | - | - |
| 1777202486 | 21.11° C | 59% | 1017.7 hPa | 0 mm | - | - | - |
| 1777202452 | 21.11° C | 59% | 1017.7 hPa | 0 mm | - | - | - |
| 1777201878 | 21.11° C | 61% | 1017.6 hPa | 0 mm | - | - | - |
| 1777201843 | 21.11° C | 61% | 1017.6 hPa | 0 mm | - | - | - |
| 1777201543 | 20.56° C | 59% | 1017.7 hPa | 0 mm | - | - | - |
| 1777201243 | 21.11° C | 58% | 1017.7 hPa | 0 mm | - | - | - |
| 1777200641 | 22.22° C | 54% | 1017.7 hPa | 0 mm | - | - | - |
| 1777200341 | 22.78° C | 53% | 1017.6 hPa | 0 mm | - | - | - |
* Rain latest hour (hover to see other rain measurements)
** Current wind speed in m/s (hover to see current wind gust speed)